START_TIME,STEP,MOV.,M35,t_acc.,PL05,t_acc.,PL06,t_acc.,PL07,t_acc.
1981-08-31 00:00:24.390 ,5,0,0.,4.8,3.,4.8,0.,4.8,0.,4.8
1981-08-31 00:00:29.190 ,5,0,0.,4.8,2.,4.8,0.,4.8,0.,4.8
1981-08-31 00:00:33.990 ,5,0,0.,4.8,0.,4.8,2.,4.8,1.,4.8
1981-08-31 00:00:38.790 ,5,0,0.,4.8,1.,4.8,2.,4.8,0.,4.8
1981-08-31 00:00:43.590 ,5,0,0.,4.8,0.,4.8,0.,4.8,1.,4.8
1981-08-31 00:00:48.390 ,4,0,0.,4.8,3.,4.8,0.,4.8,1.,4.8
1981-08-31 00:00:53.190 ,4,0,0.,4.8,2.,4.8,0.,4.8,1.,4.8
1981-08-31 00:00:57.990 ,4,0,0.,4.8,1.,4.8,0.,4.8,0.,4.8
1981-08-31 00:01:02.790 ,4,0,0.,4.8,3.,4.8,0.,4.8,0.,4.8
1981-08-31 00:01:07.590 ,4,0,0.,4.8,4.,4.8,1.,4.8,0.,4.8
1981-08-31 00:01:12.390 ,4,0,0.,4.8,0.,4.8,1.,4.8,1.,4.8
1981-08-31 00:01:17.190 ,4,0,0.,4.8,1.,4.8,1.,4.8,1.,4.8
1981-08-31 00:01:21.990 ,4,0,0.,4.8,1.,4.8,0.,4.8,0.,4.8
1981-08-31 00:01:26.790 ,4,0,0.,4.8,2.,4.8,0.,4.8,0.,4.8
1981-08-31 00:01:31.590 ,4,0,0.,4.8,4.,4.8,0.,4.8,0.,4.8
1981-08-31 00:01:36.390 ,3,0,0.,4.8,1.,4.8,0.,4.8,1.,4.8
1981-08-31 00:01:41.190 ,3,0,0.,4.8,0.,4.8,0.,4.8,0.,4.8
1981-08-31 00:01:45.990 ,3,0,0.,4.8,3.,4.8,0.,4.8,0.,4.8
1981-08-31 00:01:50.790 ,3,0,0.,4.8,1.,4.8,1.,4.8,1.,4.8
1981-08-31 00:01:55.590 ,3,0,0.,4.8,2.,4.8,2.,4.8,0.,4.8
1981-08-31 00:02:00.390 ,2,0,0.,4.8,3.,4.8,1.,4.8,0.,4.8
1981-08-31 00:02:05.190 ,2,0,0.,4.8,0.,4.8,1.,4.8,2.,4.8
1981-08-31 00:02:09.990 ,2,0,0.,4.8,2.,4.8,0.,4.8,0.,4.8
1981-08-31 00:02:14.790 ,2,0,0.,4.8,2.,4.8,1.,4.8,0.,4.8
1981-08-31 00:02:19.590 ,2,0,0.,4.8,4.,4.8,0.,4.8,0.,4.8
1981-08-31 00:02:24.390 ,1,0,0.,4.8,4.,4.8,0.,4.8,0.,4.8
1981-08-31 00:02:29.190 ,1,0,0.,4.8,0.,4.8,1.,4.8,0.,4.8
1981-08-31 00:02:33.990 ,1,0,0.,4.8,2.,4.8,0.,4.8,0.,4.8
1981-08-31 00:02:38.790 ,1,0,0.,4.8,0.,4.8,1.,4.8,0.,4.8
1981-08-31 00:02:43.590 ,1,0,0.,4.8,4.,4.8,1.,4.8,0.,4.8
1981-08-31 00:02:48.390 ,0,0,0.,4.8,2.,4.8,0.,4.8,1.,4.8
1981-08-31 00:02:53.190 ,0,0,0.,4.8,1.,4.8,1.,4.8,0.,4.8
1981-08-31 00:02:57.990 ,0,0,0.,4.8,5.,4.8,0.,4.8,1.,4.8
1981-08-31 00:03:02.790 ,0,0,0.,4.8,2.,4.8,0.,4.8,0.,4.8
1981-08-31 00:03:07.590 ,0,0,0.,4.8,2.,4.8,2.,4.8,0.,4.8
1981-08-31 00:03:12.390 ,0,0,0.,4.8,1.,4.8,0.,4.8,0.,4.8
1981-08-31 00:03:17.190 ,0,0,0.,4.8,2.,4.8,0.,4.8,1.,4.8
1981-08-31 00:03:21.990 ,0,0,0.,4.8,1.,4.8,0.,4.8,1.,4.8
1981-08-31 00:03:26.790 ,0,0,0.,4.8,3.,4.8,0.,4.8,0.,4.8
1981-08-31 00:03:31.590 ,0,0,0.,4.8,3.,4.8,0.,4.8,0.,4.8
1981-08-31 00:03:36.390 ,1,0,0.,4.8,2.,4.8,1.,4.8,3.,4.8
1981-08-31 00:03:41.190 ,1,0,0.,4.8,4.,4.8,0.,4.8,1.,4.8
1981-08-31 00:03:45.990 ,1,0,0.,4.8,2.,4.8,0.,4.8,0.,4.8
1981-08-31 00:03:50.790 ,1,0,0.,4.8,0.,4.8,1.,4.8,1.,4.8
1981-08-31 00:03:55.590 ,1,0,0.,4.8,1.,4.8,0.,4.8,1.,4.8
1981-08-31 00:04:00.390 ,2,0,0.,4.8,3.,4.8,1.,4.8,0.,4.8
1981-08-31 00:04:05.190 ,2,0,0.,4.8,2.,4.8,0.,4.8,1.,4.8
1981-08-31 00:04:09.990 ,2,0,0.,4.8,0.,4.8,0.,4.8,0.,4.8
1981-08-31 00:04:14.790 ,2,0,0.,4.8,1.,4.8,0.,4.8,0.,4.8
1981-08-31 00:04:19.590 ,2,0,0.,4.8,0.,4.8,0.,4.8,0.,4.8
1981-08-31 00:04:24.390 ,3,0,0.,4.8,2.,4.8,0.,4.8,0.,4.8
1981-08-31 00:04:29.190 ,3,0,0.,4.8,1.,4.8,2.,4.8,1.,4.8
1981-08-31 00:04:33.990 ,3,0,0.,4.8,2.,4.8,0.,4.8,0.,4.8
1981-08-31 00:04:38.790 ,3,0,0.,4.8,1.,4.8,0.,4.8,0.,4.8
1981-08-31 00:04:43.590 ,3,0,0.,4.8,1.,4.8,0.,4.8,0.,4.8
1981-08-31 00:04:48.390 ,4,0,0.,4.8,3.,4.8,2.,4.8,0.,4.8
1981-08-31 00:04:53.190 ,4,0,0.,4.8,1.,4.8,0.,4.8,0.,4.8
1981-08-31 00:04:57.990 ,4,0,0.,4.8,2.,4.8,0.,4.8,0.,4.8
1981-08-31 00:05:02.790 ,4,0,0.,4.8,6.,4.8,1.,4.8,1.,4.8
1981-08-31 00:05:07.590 ,4,0,0.,4.8,2.,4.8,1.,4.8,0.,4.8
1981-08-31 00:05:12.390 ,5,0,0.,4.8,3.,4.8,1.,4.8,0.,4.8
1981-08-31 00:05:17.190 ,5,0,0.,4.8,4.,4.8,0.,4.8,0.,4.8
1981-08-31 00:05:21.990 ,5,0,0.,4.8,1.,4.8,1.,4.8,0.,4.8
1981-08-31 00:05:26.790 ,5,0,0.,4.8,1.,4.8,0.,4.8,0.,4.8
1981-08-31 00:05:31.590 ,5,0,0.,4.8,5.,4.8,1.,4.8,0.,4.8
1981-08-31 00:05:36.390 ,6,0,0.,4.8,2.,4.8,0.,4.8,0.,4.8
1981-08-31 00:05:41.190 ,6,0,0.,4.8,1.,4.8,1.,4.8,1.,4.8
1981-08-31 00:05:45.990 ,6,0,0.,4.8,4.,4.8,0.,4.8,0.,4.8
1981-08-31 00:05:50.790 ,6,0,0.,4.8,1.,4.8,0.,4.8,0.,4.8
1981-08-31 00:05:55.590 ,6,0,0.,4.8,0.,4.8,0.,4.8,0.,4.8
1981-08-31 00:06:00.390 ,7,0,0.,4.8,1.,4.8,0.,4.8,0.,4.8
1981-08-31 00:06:05.190 ,7,0,0.,4.8,4.,4.8,1.,4.8,1.,4.8
1981-08-31 00:06:09.990 ,7,0,0.,4.8,0.,4.8,0.,4.8,0.,4.8
1981-08-31 00:06:14.790 ,7,0,0.,4.8,2.,4.8,0.,4.8,0.,4.8
1981-08-31 00:06:19.590 ,7,0,0.,4.8,0.,4.8,0.,4.8,0.,4.8
1981-08-31 00:06:24.390 ,7,0,0.,4.8,0.,4.8,1.,4.8,0.,4.8
1981-08-31 00:06:29.190 ,7,0,0.,4.8,0.,4.8,0.,4.8,0.,4.8
1981-08-31 00:06:33.990 ,7,0,0.,4.8,0.,4.8,0.,4.8,0.,4.8
1981-08-31 00:06:38.790 ,7,0,0.,4.8,0.,4.8,0.,4.8,0.,4.8
1981-08-31 00:06:43.590 ,7,0,0.,4.8,1.,4.8,0.,4.8,1.,4.8
1981-08-31 00:06:48.390 ,6,0,0.,4.8,0.,4.8,0.,4.8,0.,4.8
1981-08-31 00:06:53.190 ,6,0,0.,4.8,1.,4.8,0.,4.8,0.,4.8
1981-08-31 00:06:57.990 ,6,0,0.,4.8,2.,4.8,1.,4.8,0.,4.8
1981-08-31 00:07:02.790 ,6,0,0.,4.8,1.,4.8,1.,4.8,0.,4.8
1981-08-31 00:07:07.590 ,6,0,0.,4.8,1.,4.8,0.,4.8,2.,4.8
1981-08-31 00:07:12.390 ,5,0,0.,4.8,0.,4.8,0.,4.8,0.,4.8
1981-08-31 00:07:17.190 ,5,0,0.,4.8,3.,4.8,0.,4.8,0.,4.8
1981-08-31 00:07:21.990 ,5,0,0.,4.8,3.,4.8,0.,4.8,0.,4.8
1981-08-31 00:07:26.790 ,5,0,0.,4.8,1.,4.8,0.,4.8,0.,4.8
1981-08-31 00:07:31.590 ,5,0,0.,4.8,3.,4.8,0.,4.8,0.,4.8
1981-08-31 00:07:36.390 ,4,0,0.,4.8,2.,4.8,1.,4.8,1.,4.8
1981-08-31 00:07:41.190 ,4,0,0.,4.8,0.,4.8,1.,4.8,1.,4.8
1981-08-31 00:07:45.990 ,4,0,0.,4.8,1.,4.8,0.,4.8,0.,4.8
1981-08-31 00:07:50.790 ,4,0,0.,4.8,0.,4.8,0.,4.8,0.,4.8
1981-08-31 00:07:55.590 ,4,0,0.,4.8,1.,4.8,0.,4.8,0.,4.8
1981-08-31 00:08:00.390 ,3,0,0.,4.8,1.,4.8,0.,4.8,0.,4.8
1981-08-31 00:08:05.190 ,3,0,0.,4.8,2.,4.8,0.,4.8,0.,4.8
1981-08-31 00:08:09.990 ,3,0,0.,4.8,3.,4.8,0.,4.8,0.,4.8
1981-08-31 00:08:14.790 ,3,0,0.,4.8,1.,4.8,0.,4.8,0.,4.8
1981-08-31 00:08:19.590 ,3,0,0.,4.8,1.,4.8,1.,4.8,0.,4.8
1981-08-31 00:08:24.390 ,3,0,0.,4.8,1.,4.8,0.,4.8,0.,4.8
1981-08-31 00:08:29.190 ,3,0,0.,4.8,1.,4.8,1.,4.8,1.,4.8
1981-08-31 00:08:33.990 ,3,0,0.,4.8,2.,4.8,0.,4.8,0.,4.8
1981-08-31 00:08:38.790 ,3,0,0.,4.8,6.,4.8,0.,4.8,0.,4.8
1981-08-31 00:08:43.590 ,3,0,0.,4.8,1.,4.8,2.,4.8,0.,4.8
1981-08-31 00:08:48.390 ,2,0,0.,4.8,2.,4.8,0.,4.8,0.,4.8
1981-08-31 00:08:53.190 ,2,0,0.,4.8,1.,4.8,1.,4.8,1.,4.8
1981-08-31 00:08:57.990 ,2,0,0.,4.8,2.,4.8,0.,4.8,0.,4.8
1981-08-31 00:09:02.790 ,2,0,0.,4.8,2.,4.8,1.,4.8,0.,4.8
1981-08-31 00:09:07.590 ,2,0,0.,4.8,1.,4.8,0.,4.8,1.,4.8
1981-08-31 00:09:12.390 ,2,0,0.,4.8,1.,4.8,0.,4.8,0.,4.8
1981-08-31 00:09:17.190 ,2,0,0.,4.8,2.,4.8,0.,4.8,0.,4.8
1981-08-31 00:09:21.990 ,2,0,0.,4.8,1.,4.8,0.,4.8,0.,4.8
1981-08-31 00:09:26.790 ,2,0,0.,4.8,2.,4.8,0.,4.8,0.,4.8
1981-08-31 00:09:31.590 ,2,0,0.,4.8,1.,4.8,0.,4.8,1.,4.8
1981-08-31 00:09:36.390 ,1,0,0.,4.8,3.,4.8,2.,4.8,0.,4.8
1981-08-31 00:09:41.190 ,1,0,0.,4.8,3.,4.8,3.,4.8,0.,4.8
1981-08-31 00:09:45.990 ,1,0,0.,4.8,1.,4.8,1.,4.8,0.,4.8
1981-08-31 00:09:50.790 ,1,0,0.,4.8,0.,4.8,0.,4.8,0.,4.8
1981-08-31 00:09:55.590 ,1,0,0.,4.8,3.,4.8,0.,4.8,0.,4.8
1981-08-31 00:10:00.390 ,1,0,0.,4.8,2.,4.8,1.,4.8,1.,4.8
1981-08-31 00:10:05.190 ,1,0,0.,4.8,2.,4.8,1.,4.8,0.,4.8
1981-08-31 00:10:09.990 ,1,0,0.,4.8,2.,4.8,0.,4.8,1.,4.8
1981-08-31 00:10:14.790 ,1,0,0.,4.8,2.,4.8,1.,4.8,0.,4.8
1981-08-31 00:10:19.590 ,1,0,0.,4.8,2.,4.8,2.,4.8,1.,4.8
1981-08-31 00:10:24.390 ,0,0,0.,4.8,3.,4.8,2.,4.8,0.,4.8
1981-08-31 00:10:29.190 ,0,0,0.,4.8,1.,4.8,1.,4.8,1.,4.8
1981-08-31 00:10:33.990 ,0,0,0.,4.8,3.,4.8,2.,4.8,0.,4.8
1981-08-31 00:10:38.790 ,0,0,0.,4.8,3.,4.8,0.,4.8,0.,4.8
1981-08-31 00:10:43.590 ,0,0,0.,4.8,1.,4.8,3.,4.8,0.,4.8
1981-08-31 00:10:48.390 ,0,0,0.,4.8,2.,4.8,0.,4.8,1.,4.8
1981-08-31 00:10:53.190 ,0,0,0.,4.8,2.,4.8,0.,4.8,0.,4.8
1981-08-31 00:10:57.990 ,0,0,0.,4.8,4.,4.8,0.,4.8,0.,4.8
1981-08-31 00:11:02.790 ,0,0,0.,4.8,1.,4.8,1.,4.8,1.,4.8
1981-08-31 00:11:07.590 ,0,0,0.,4.8,4.,4.8,0.,4.8,0.,4.8
1981-08-31 00:11:12.390 ,0,0,0.,4.8,3.,4.8,0.,4.8,0.,4.8
1981-08-31 00:11:17.190 ,0,0,0.,4.8,4.,4.8,0.,4.8,0.,4.8
1981-08-31 00:11:21.990 ,0,0,0.,4.8,3.,4.8,0.,4.8,0.,4.8
1981-08-31 00:11:26.790 ,0,0,0.,4.8,3.,4.8,0.,4.8,0.,4.8
1981-08-31 00:11:31.590 ,0,0,0.,4.8,3.,4.8,1.,4.8,0.,4.8
1981-08-31 00:11:36.390 ,0,0,0.,4.8,1.,4.8,0.,4.8,1.,4.8
1981-08-31 00:11:41.190 ,0,0,0.,4.8,0.,4.8,2.,4.8,0.,4.8
1981-08-31 00:11:45.990 ,0,0,0.,4.8,2.,4.8,1.,4.8,0.,4.8
1981-08-31 00:11:50.790 ,0,0,0.,4.8,1.,4.8,0.,4.8,0.,4.8
1981-08-31 00:11:55.590 ,0,0,0.,4.8,1.,4.8,0.,4.8,0.,4.8
1981-08-31 00:12:00.390 ,1,0,0.,4.8,3.,4.8,2.,4.8,0.,4.8
1981-08-31 00:12:05.190 ,1,0,0.,4.8,5.,4.8,2.,4.8,0.,4.8
1981-08-31 00:12:09.990 ,1,0,0.,4.8,1.,4.8,0.,4.8,0.,4.8
1981-08-31 00:12:14.790 ,1,0,0.,4.8,0.,4.8,2.,4.8,0.,4.8
1981-08-31 00:12:19.590 ,1,0,0.,4.8,3.,4.8,1.,4.8,0.,4.8
1981-08-31 00:12:24.390 ,1,0,0.,4.8,0.,4.8,0.,4.8,0.,4.8
1981-08-31 00:12:29.190 ,1,0,0.,4.8,2.,4.8,0.,4.8,0.,4.8
1981-08-31 00:12:33.990 ,1,0,0.,4.8,1.,4.8,1.,4.8,0.,4.8
1981-08-31 00:12:38.790 ,1,0,0.,4.8,1.,4.8,0.,4.8,0.,4.8
1981-08-31 00:12:43.590 ,1,0,0.,4.8,1.,4.8,1.,4.8,1.,4.8
1981-08-31 00:12:48.390 ,2,0,0.,4.8,4.,4.8,2.,4.8,0.,4.8
1981-08-31 00:12:53.190 ,2,0,0.,4.8,1.,4.8,2.,4.8,0.,4.8
1981-08-31 00:12:57.990 ,2,0,0.,4.8,0.,4.8,0.,4.8,0.,4.8
1981-08-31 00:13:02.790 ,2,0,0.,4.8,3.,4.8,1.,4.8,0.,4.8
1981-08-31 00:13:07.590 ,2,0,0.,4.8,1.,4.8,1.,4.8,1.,4.8
1981-08-31 00:13:12.390 ,2,0,0.,4.8,4.,4.8,0.,4.8,0.,4.8
1981-08-31 00:13:17.190 ,2,0,0.,4.8,5.,4.8,2.,4.8,0.,4.8
1981-08-31 00:13:21.990 ,2,0,0.,4.8,3.,4.8,1.,4.8,0.,4.8
1981-08-31 00:13:26.790 ,2,0,0.,4.8,4.,4.8,0.,4.8,1.,4.8
1981-08-31 00:13:31.590 ,2,0,0.,4.8,2.,4.8,0.,4.8,0.,4.8
1981-08-31 00:13:36.390 ,3,0,0.,4.8,2.,4.8,0.,4.8,0.,4.8
1981-08-31 00:13:41.190 ,3,0,0.,4.8,1.,4.8,1.,4.8,0.,4.8
1981-08-31 00:13:45.990 ,3,0,0.,4.8,3.,4.8,1.,4.8,0.,4.8
1981-08-31 00:13:50.790 ,3,0,0.,4.8,0.,4.8,1.,4.8,0.,4.8
1981-08-31 00:13:55.590 ,3,0,0.,4.8,1.,4.8,1.,4.8,0.,4.8
1981-08-31 00:14:00.390 ,3,0,0.,4.8,1.,4.8,2.,4.8,0.,4.8
1981-08-31 00:14:05.190 ,3,0,0.,4.8,1.,4.8,2.,4.8,0.,4.8
1981-08-31 00:14:09.990 ,3,0,0.,4.8,3.,4.8,0.,4.8,0.,4.8
1981-08-31 00:14:14.790 ,3,0,0.,4.8,3.,4.8,1.,4.8,0.,4.8
1981-08-31 00:14:19.590 ,3,0,0.,4.8,0.,4.8,0.,4.8,1.,4.8
1981-08-31 00:14:24.390 ,4,0,0.,4.8,1.,4.8,2.,4.8,0.,4.8
1981-08-31 00:14:29.190 ,4,0,0.,4.8,2.,4.8,0.,4.8,1.,4.8
1981-08-31 00:14:33.990 ,4,0,0.,4.8,1.,4.8,1.,4.8,0.,4.8
1981-08-31 00:14:38.790 ,4,0,0.,4.8,1.,4.8,1.,4.8,0.,4.8
1981-08-31 00:14:43.590 ,4,0,0.,4.8,1.,4.8,1.,4.8,0.,4.8
1981-08-31 00:14:48.390 ,4,0,0.,4.8,1.,4.8,0.,4.8,0.,4.8
1981-08-31 00:14:53.190 ,4,0,0.,4.8,0.,4.8,0.,4.8,1.,4.8
1981-08-31 00:14:57.990 ,4,0,0.,4.8,1.,4.8,0.,4.8,1.,4.8
1981-08-31 00:15:02.790 ,4,0,0.,4.8,2.,4.8,2.,4.8,0.,4.8
1981-08-31 00:15:07.590 ,4,0,0.,4.8,2.,4.8,0.,4.8,0.,4.8
1981-08-31 00:18:24.390 ,0,0,0.,4.8,0.,4.8,0.,4.8,0.,4.8
1981-08-31 00:18:29.190 ,0,0,0.,4.8,0.,4.8,0.,4.8,0.,4.8
1981-08-31 00:18:33.990 ,0,0,0.,4.8,3.,4.8,0.,4.8,0.,4.8
1981-08-31 00:18:38.790 ,0,0,0.,4.8,2.,4.8,3.,4.8,0.,4.8
1981-08-31 00:18:43.590 ,0,0,0.,4.8,1.,4.8,0.,4.8,0.,4.8
1981-08-31 00:18:48.390 ,0,0,0.,4.8,2.,4.8,2.,4.8,0.,4.8
1981-08-31 00:18:53.190 ,0,0,0.,4.8,0.,4.8,0.,4.8,0.,4.8
1981-08-31 00:18:57.990 ,0,0,0.,4.8,2.,4.8,0.,4.8,0.,4.8
1981-08-31 00:19:02.790 ,0,0,0.,4.8,4.,4.8,0.,4.8,0.,4.8
1981-08-31 00:19:07.590 ,0,0,0.,4.8,1.,4.8,1.,4.8,2.,4.8
1981-08-31 00:19:12.390 ,5,0,0.,4.8,0.,4.8,0.,4.8,0.,4.8
1981-08-31 00:19:17.190 ,5,0,0.,4.8,3.,4.8,0.,4.8,0.,4.8
1981-08-31 00:19:21.990 ,5,0,0.,4.8,3.,4.8,0.,4.8,0.,4.8
1981-08-31 00:19:26.790 ,5,0,0.,4.8,3.,4.8,3.,4.8,0.,4.8
1981-08-31 00:19:31.590 ,5,0,0.,4.8,2.,4.8,0.,4.8,0.,4.8
1981-08-31 00:19:36.390 ,5,0,0.,4.8,1.,4.8,0.,4.8,0.,4.8
1981-08-31 00:19:41.190 ,5,0,0.,4.8,3.,4.8,0.,4.8,0.,4.8
1981-08-31 00:19:45.990 ,5,0,0.,4.8,2.,4.8,1.,4.8,0.,4.8
1981-08-31 00:19:50.790 ,5,0,0.,4.8,1.,4.8,1.,4.8,0.,4.8
1981-08-31 00:19:55.590 ,5,0,0.,4.8,0.,4.8,0.,4.8,0.,4.8
1981-08-31 00:20:00.390 ,4,0,0.,4.8,3.,4.8,1.,4.8,0.,4.8
1981-08-31 00:20:05.190 ,4,0,0.,4.8,2.,4.8,1.,4.8,0.,4.8
1981-08-31 00:20:09.990 ,4,0,0.,4.8,2.,4.8,0.,4.8,1.,4.8
1981-08-31 00:20:14.790 ,4,0,0.,4.8,3.,4.8,1.,4.8,0.,4.8
1981-08-31 00:20:19.590 ,4,0,0.,4.8,1.,4.8,1.,4.8,1.,4.8
1981-08-31 00:20:24.390 ,4,0,0.,4.8,4.,4.8,0.,4.8,0.,4.8
1981-08-31 00:20:29.190 ,4,0,0.,4.8,0.,4.8,1.,4.8,0.,4.8
1981-08-31 00:20:33.990 ,4,0,0.,4.8,0.,4.8,0.,4.8,0.,4.8
1981-08-31 00:20:38.790 ,4,0,0.,4.8,0.,4.8,1.,4.8,0.,4.8
1981-08-31 00:20:43.590 ,4,0,0.,4.8,5.,4.8,0.,4.8,0.,4.8
1981-08-31 00:20:48.390 ,3,0,0.,4.8,1.,4.8,2.,4.8,0.,4.8
1981-08-31 00:20:53.190 ,3,0,0.,4.8,2.,4.8,1.,4.8,0.,4.8
1981-08-31 00:20:57.990 ,3,0,0.,4.8,4.,4.8,0.,4.8,0.,4.8
1981-08-31 00:21:02.790 ,3,0,0.,4.8,4.,4.8,2.,4.8,0.,4.8
1981-08-31 00:21:07.590 ,3,0,0.,4.8,1.,4.8,1.,4.8,0.,4.8
1981-08-31 00:21:12.390 ,2,0,0.,4.8,1.,4.8,0.,4.8,0.,4.8
1981-08-31 00:21:17.190 ,2,0,0.,4.8,3.,4.8,0.,4.8,0.,4.8
1981-08-31 00:21:21.990 ,2,0,0.,4.8,0.,4.8,0.,4.8,1.,4.8
1981-08-31 00:21:26.790 ,2,0,0.,4.8,1.,4.8,1.,4.8,1.,4.8
1981-08-31 00:21:31.590 ,2,0,0.,4.8,2.,4.8,0.,4.8,1.,4.8
1981-08-31 00:21:36.390 ,1,0,0.,4.8,1.,4.8,0.,4.8,0.,4.8
1981-08-31 00:21:41.190 ,1,0,0.,4.8,0.,4.8,0.,4.8,0.,4.8
1981-08-31 00:21:45.990 ,1,0,0.,4.8,2.,4.8,2.,4.8,0.,4.8
1981-08-31 00:21:50.790 ,1,0,0.,4.8,2.,4.8,1.,4.8,0.,4.8
1981-08-31 00:21:55.590 ,1,0,0.,4.8,3.,4.8,0.,4.8,0.,4.8
1981-08-31 00:22:00.390 ,0,0,0.,4.8,3.,4.8,0.,4.8,1.,4.8
1981-08-31 00:22:05.190 ,0,0,0.,4.8,0.,4.8,1.,4.8,0.,4.8
1981-08-31 00:22:09.990 ,0,0,0.,4.8,2.,4.8,1.,4.8,0.,4.8
1981-08-31 00:22:14.790 ,0,0,0.,4.8,3.,4.8,1.,4.8,0.,4.8
1981-08-31 00:22:19.590 ,0,0,0.,4.8,2.,4.8,2.,4.8,0.,4.8
1981-08-31 00:22:24.390 ,0,0,0.,4.8,1.,4.8,3.,4.8,1.,4.8
1981-08-31 00:22:29.190 ,0,0,0.,4.8,5.,4.8,3.,4.8,1.,4.8
1981-08-31 00:22:33.990 ,0,0,0.,4.8,3.,4.8,0.,4.8,0.,4.8
1981-08-31 00:22:38.790 ,0,0,0.,4.8,5.,4.8,0.,4.8,0.,4.8
1981-08-31 00:22:43.590 ,0,0,0.,4.8,2.,4.8,2.,4.8,2.,4.8
1981-08-31 00:22:48.390 ,1,0,0.,4.8,1.,4.8,0.,4.8,0.,4.8
1981-08-31 00:22:53.190 ,1,0,0.,4.8,3.,4.8,1.,4.8,0.,4.8
1981-08-31 00:22:57.990 ,1,0,0.,4.8,2.,4.8,1.,4.8,0.,4.8
1981-08-31 00:23:02.790 ,1,0,0.,4.8,4.,4.8,0.,4.8,1.,4.8
1981-08-31 00:23:07.590 ,1,0,0.,4.8,0.,4.8,1.,4.8,0.,4.8
1981-08-31 00:23:12.390 ,2,0,0.,4.8,2.,4.8,0.,4.8,0.,4.8
1981-08-31 00:23:17.190 ,2,0,0.,4.8,1.,4.8,1.,4.8,0.,4.8
1981-08-31 00:23:21.990 ,2,0,0.,4.8,0.,4.8,0.,4.8,0.,4.8
1981-08-31 00:23:26.790 ,2,0,0.,4.8,1.,4.8,1.,4.8,0.,4.8
1981-08-31 00:23:31.590 ,2,0,0.,4.8,2.,4.8,0.,4.8,0.,4.8
1981-08-31 00:23:36.390 ,3,0,0.,4.8,1.,4.8,2.,4.8,0.,4.8
1981-08-31 00:23:41.190 ,3,0,0.,4.8,1.,4.8,0.,4.8,0.,4.8
1981-08-31 00:23:45.990 ,3,0,0.,4.8,3.,4.8,0.,4.8,0.,4.8
1981-08-31 00:23:50.790 ,3,0,0.,4.8,0.,4.8,1.,4.8,1.,4.8
1981-08-31 00:23:55.590 ,3,0,0.,4.8,1.,4.8,1.,4.8,1.,4.8
1981-08-31 00:24:00.390 ,4,0,0.,4.8,3.,4.8,0.,4.8,0.,4.8
1981-08-31 00:24:05.190 ,4,0,0.,4.8,0.,4.8,0.,4.8,0.,4.8
1981-08-31 00:24:09.990 ,4,0,0.,4.8,2.,4.8,0.,4.8,1.,4.8
1981-08-31 00:24:14.790 ,4,0,0.,4.8,1.,4.8,0.,4.8,0.,4.8
1981-08-31 00:24:19.590 ,4,0,0.,4.8,3.,4.8,0.,4.8,0.,4.8
1981-08-31 00:24:24.390 ,5,0,0.,4.8,1.,4.8,0.,4.8,0.,4.8
1981-08-31 00:24:29.190 ,5,0,0.,4.8,3.,4.8,1.,4.8,1.,4.8
1981-08-31 00:24:33.990 ,5,0,0.,4.8,1.,4.8,1.,4.8,0.,4.8
1981-08-31 00:24:38.790 ,5,0,0.,4.8,0.,4.8,1.,4.8,1.,4.8
1981-08-31 00:24:43.590 ,5,0,0.,4.8,5.,4.8,0.,4.8,0.,4.8
1981-08-31 00:24:48.390 ,6,0,0.,4.8,1.,4.8,2.,4.8,0.,4.8
1981-08-31 00:24:53.190 ,6,0,0.,4.8,2.,4.8,0.,4.8,0.,4.8
1981-08-31 00:24:57.990 ,6,0,0.,4.8,2.,4.8,0.,4.8,0.,4.8
1981-08-31 00:25:02.790 ,6,0,0.,4.8,1.,4.8,1.,4.8,1.,4.8
1981-08-31 00:25:07.590 ,6,0,0.,4.8,1.,4.8,0.,4.8,0.,4.8
1981-08-31 00:25:12.390 ,7,0,0.,4.8,0.,4.8,0.,4.8,0.,4.8
1981-08-31 00:25:17.190 ,7,0,0.,4.8,1.,4.8,0.,4.8,0.,4.8
1981-08-31 00:25:21.990 ,7,0,0.,4.8,0.,4.8,0.,4.8,0.,4.8
1981-08-31 00:25:26.790 ,7,0,0.,4.8,0.,4.8,0.,4.8,1.,4.8
1981-08-31 00:25:31.590 ,7,0,0.,4.8,0.,4.8,1.,4.8,0.,4.8
1981-08-31 00:25:36.390 ,7,0,0.,4.8,1.,4.8,1.,4.8,0.,4.8
1981-08-31 00:25:41.190 ,7,0,0.,4.8,1.,4.8,0.,4.8,0.,4.8
1981-08-31 00:25:45.990 ,7,0,0.,4.8,0.,4.8,1.,4.8,0.,4.8
1981-08-31 00:25:50.790 ,7,0,0.,4.8,0.,4.8,0.,4.8,0.,4.8
1981-08-31 00:25:55.590 ,7,0,0.,4.8,0.,4.8,0.,4.8,0.,4.8
1981-08-31 00:26:00.390 ,6,0,0.,4.8,2.,4.8,0.,4.8,0.,4.8
1981-08-31 00:26:05.190 ,6,0,0.,4.8,1.,4.8,2.,4.8,0.,4.8
1981-08-31 00:26:09.990 ,6,0,0.,4.8,1.,4.8,0.,4.8,0.,4.8
1981-08-31 00:26:14.790 ,6,0,0.,4.8,4.,4.8,1.,4.8,0.,4.8
1981-08-31 00:26:19.590 ,6,0,0.,4.8,0.,4.8,1.,4.8,0.,4.8
1981-08-31 00:26:24.390 ,5,0,0.,4.8,0.,4.8,0.,4.8,0.,4.8
1981-08-31 00:26:29.190 ,5,0,0.,4.8,3.,4.8,0.,4.8,1.,4.8
1981-08-31 00:26:33.990 ,5,0,0.,4.8,1.,4.8,0.,4.8,0.,4.8
1981-08-31 00:26:38.790 ,5,0,0.,4.8,1.,4.8,0.,4.8,0.,4.8
1981-08-31 00:26:43.590 ,5,0,0.,4.8,1.,4.8,0.,4.8,1.,4.8
1981-08-31 00:26:48.390 ,4,0,0.,4.8,0.,4.8,0.,4.8,0.,4.8
1981-08-31 00:26:53.190 ,4,0,0.,4.8,2.,4.8,2.,4.8,1.,4.8
1981-08-31 00:26:57.990 ,4,0,0.,4.8,1.,4.8,0.,4.8,0.,4.8
1981-08-31 00:27:02.790 ,4,0,0.,4.8,1.,4.8,0.,4.8,0.,4.8
1981-08-31 00:27:07.590 ,4,0,0.,4.8,2.,4.8,0.,4.8,1.,4.8
1981-08-31 00:27:12.390 ,3,0,0.,4.8,1.,4.8,0.,4.8,0.,4.8
1981-08-31 00:27:17.190 ,3,0,0.,4.8,0.,4.8,1.,4.8,0.,4.8
1981-08-31 00:27:21.990 ,3,0,0.,4.8,1.,4.8,0.,4.8,0.,4.8
1981-08-31 00:27:26.790 ,3,0,0.,4.8,6.,4.8,1.,4.8,1.,4.8
1981-08-31 00:27:31.590 ,3,0,0.,4.8,2.,4.8,0.,4.8,0.,4.8
1981-08-31 00:27:36.390 ,3,0,0.,4.8,2.,4.8,1.,4.8,0.,4.8
1981-08-31 00:27:41.190 ,3,0,0.,4.8,3.,4.8,0.,4.8,0.,4.8
1981-08-31 00:27:45.990 ,3,0,0.,4.8,1.,4.8,0.,4.8,0.,4.8
1981-08-31 00:27:50.790 ,3,0,0.,4.8,2.,4.8,0.,4.8,2.,4.8
1981-08-31 00:27:55.590 ,3,0,0.,4.8,5.,4.8,0.,4.8,0.,4.8
1981-08-31 00:28:00.390 ,2,0,0.,4.8,1.,4.8,0.,4.8,0.,4.8
1981-08-31 00:28:05.190 ,2,0,0.,4.8,0.,4.8,0.,4.8,0.,4.8
1981-08-31 00:28:09.990 ,2,0,0.,4.8,2.,4.8,0.,4.8,0.,4.8
1981-08-31 00:28:14.790 ,2,0,0.,4.8,2.,4.8,0.,4.8,0.,4.8
1981-08-31 00:28:19.590 ,2,0,0.,4.8,3.,4.8,0.,4.8,0.,4.8
1981-08-31 00:28:24.390 ,2,0,0.,4.8,3.,4.8,0.,4.8,0.,4.8
1981-08-31 00:28:29.190 ,2,0,0.,4.8,2.,4.8,0.,4.8,0.,4.8
1981-08-31 00:28:33.990 ,2,0,0.,4.8,3.,4.8,1.,4.8,1.,4.8
1981-08-31 00:28:38.790 ,2,0,0.,4.8,0.,4.8,2.,4.8,0.,4.8
1981-08-31 00:28:43.590 ,2,0,0.,4.8,1.,4.8,0.,4.8,0.,4.8
1981-08-31 00:29:12.390 ,1,0,0.,4.8,1.,4.8,1.,4.8,1.,4.8
1981-08-31 00:29:17.190 ,1,0,0.,4.8,1.,4.8,2.,4.8,0.,4.8
1981-08-31 00:29:21.990 ,1,0,0.,4.8,2.,4.8,0.,4.8,0.,4.8
1981-08-31 00:29:26.790 ,1,0,0.,4.8,0.,4.8,0.,4.8,0.,4.8
1981-08-31 00:29:31.590 ,1,0,0.,4.8,1.,4.8,1.,4.8,0.,4.8
1981-08-31 00:29:36.390 ,0,0,0.,4.8,3.,4.8,1.,4.8,0.,4.8
1981-08-31 00:29:41.190 ,0,0,0.,4.8,0.,4.8,0.,4.8,0.,4.8
1981-08-31 00:29:45.990 ,0,0,0.,4.8,3.,4.8,0.,4.8,0.,4.8
1981-08-31 00:29:50.790 ,0,0,0.,4.8,2.,4.8,1.,4.8,0.,4.8
1981-08-31 00:29:55.590 ,0,0,0.,4.8,2.,4.8,0.,4.8,0.,4.8
1981-08-31 00:30:00.390 ,0,0,0.,4.8,1.,4.8,0.,4.8,0.,4.8
1981-08-31 00:30:05.190 ,0,0,0.,4.8,1.,4.8,2.,4.8,1.,4.8
1981-08-31 00:30:09.990 ,0,0,0.,4.8,3.,4.8,0.,4.8,0.,4.8
1981-08-31 00:30:14.790 ,0,0,0.,4.8,0.,4.8,0.,4.8,0.,4.8
1981-08-31 00:30:19.590 ,0,0,0.,4.8,3.,4.8,0.,4.8,1.,4.8
1981-08-31 00:30:24.390 ,0,0,0.,4.8,1.,4.8,1.,4.8,0.,4.8
1981-08-31 00:30:29.190 ,0,0,0.,4.8,1.,4.8,0.,4.8,1.,4.8
1981-08-31 00:30:33.990 ,0,0,0.,4.8,3.,4.8,1.,4.8,2.,4.8
1981-08-31 00:30:38.790 ,0,0,0.,4.8,3.,4.8,2.,4.8,0.,4.8
1981-08-31 00:30:43.590 ,0,0,0.,4.8,0.,4.8,0.,4.8,0.,4.8
1981-08-31 00:30:48.390 ,0,0,0.,4.8,3.,4.8,0.,4.8,0.,4.8
1981-08-31 00:30:53.190 ,0,0,0.,4.8,1.,4.8,0.,4.8,1.,4.8
1981-08-31 00:30:57.990 ,0,0,0.,4.8,0.,4.8,0.,4.8,1.,4.8
1981-08-31 00:31:02.790 ,0,0,0.,4.8,3.,4.8,0.,4.8,1.,4.8
1981-08-31 00:31:07.590 ,0,0,0.,4.8,2.,4.8,0.,4.8,1.,4.8
1981-08-31 00:31:12.390 ,1,0,0.,4.8,2.,4.8,0.,4.8,0.,4.8
1981-08-31 00:31:17.190 ,1,0,0.,4.8,2.,4.8,1.,4.8,0.,4.8
1981-08-31 00:31:21.990 ,1,0,0.,4.8,1.,4.8,0.,4.8,0.,4.8
1981-08-31 00:31:26.790 ,1,0,0.,4.8,5.,4.8,1.,4.8,1.,4.8
1981-08-31 00:31:31.590 ,1,0,0.,4.8,4.,4.8,0.,4.8,1.,4.8
1981-08-31 00:31:36.390 ,1,0,0.,4.8,2.,4.8,0.,4.8,0.,4.8
1981-08-31 00:31:41.190 ,1,0,0.,4.8,1.,4.8,0.,4.8,0.,4.8
1981-08-31 00:31:45.990 ,1,0,0.,4.8,2.,4.8,1.,4.8,0.,4.8
1981-08-31 00:31:50.790 ,1,0,0.,4.8,3.,4.8,0.,4.8,0.,4.8
1981-08-31 00:31:55.590 ,1,0,0.,4.8,3.,4.8,0.,4.8,0.,4.8
1981-08-31 00:32:00.390 ,2,0,0.,4.8,3.,4.8,1.,4.8,0.,4.8
1981-08-31 00:32:05.190 ,2,0,0.,4.8,0.,4.8,1.,4.8,0.,4.8
1981-08-31 00:32:09.990 ,2,0,0.,4.8,3.,4.8,1.,4.8,0.,4.8
1981-08-31 00:32:14.790 ,2,0,0.,4.8,2.,4.8,1.,4.8,0.,4.8
1981-08-31 00:32:19.590 ,2,0,0.,4.8,3.,4.8,0.,4.8,0.,4.8
1981-08-31 00:32:24.390 ,2,0,0.,4.8,3.,4.8,0.,4.8,0.,4.8
1981-08-31 00:32:29.190 ,2,0,0.,4.8,1.,4.8,1.,4.8,0.,4.8
1981-08-31 00:32:33.990 ,2,0,0.,4.8,5.,4.8,0.,4.8,0.,4.8
1981-08-31 00:32:38.790 ,2,0,0.,4.8,1.,4.8,0.,4.8,0.,4.8
1981-08-31 00:32:43.590 ,2,0,0.,4.8,2.,4.8,1.,4.8,3.,4.8
1981-08-31 00:32:48.390 ,3,0,0.,4.8,2.,4.8,0.,4.8,0.,4.8
1981-08-31 00:32:53.190 ,3,0,0.,4.8,1.,4.8,1.,4.8,0.,4.8
1981-08-31 00:32:57.990 ,3,0,0.,4.8,4.,4.8,0.,4.8,0.,4.8
1981-08-31 00:33:02.790 ,3,0,0.,4.8,6.,4.8,0.,4.8,0.,4.8
1981-08-31 00:33:07.590 ,3,0,0.,4.8,1.,4.8,1.,4.8,0.,4.8
1981-08-31 00:33:12.390 ,3,0,0.,4.8,1.,4.8,0.,4.8,1.,4.8
1981-08-31 00:33:17.190 ,3,0,0.,4.8,1.,4.8,0.,4.8,1.,4.8
1981-08-31 00:33:21.990 ,3,0,0.,4.8,4.,4.8,0.,4.8,1.,4.8
1981-08-31 00:33:26.790 ,3,0,0.,4.8,2.,4.8,1.,4.8,0.,4.8
1981-08-31 00:33:31.590 ,3,0,0.,4.8,0.,4.8,3.,4.8,0.,4.8
1981-08-31 00:33:36.390 ,4,0,0.,4.8,2.,4.8,0.,4.8,0.,4.8
1981-08-31 00:33:41.190 ,4,0,0.,4.8,0.,4.8,0.,4.8,0.,4.8
1981-08-31 00:33:45.990 ,4,0,0.,4.8,2.,4.8,0.,4.8,0.,4.8
1981-08-31 00:33:50.790 ,4,0,0.,4.8,2.,4.8,0.,4.8,0.,4.8
1981-08-31 00:33:55.590 ,4,0,0.,4.8,1.,4.8,0.,4.8,1.,4.8
1981-08-31 00:34:00.390 ,4,0,0.,4.8,1.,4.8,0.,4.8,1.,4.8
1981-08-31 00:34:05.190 ,4,0,0.,4.8,1.,4.8,0.,4.8,0.,4.8
1981-08-31 00:34:09.990 ,4,0,0.,4.8,2.,4.8,0.,4.8,0.,4.8
1981-08-31 00:34:14.790 ,4,0,0.,4.8,1.,4.8,0.,4.8,0.,4.8
1981-08-31 00:34:19.590 ,4,0,0.,4.8,1.,4.8,0.,4.8,1.,4.8
1981-08-31 00:34:24.390 ,5,0,0.,4.8,1.,4.8,1.,4.8,1.,4.8
1981-08-31 00:34:29.190 ,5,0,0.,4.8,4.,4.8,0.,4.8,0.,4.8
1981-08-31 00:34:33.990 ,5,0,0.,4.8,0.,4.8,0.,4.8,0.,4.8
1981-08-31 00:34:38.790 ,5,0,0.,4.8,2.,4.8,0.,4.8,0.,4.8
1981-08-31 00:34:43.590 ,5,0,0.,4.8,1.,4.8,2.,4.8,1.,4.8
1981-08-31 00:34:48.390 ,5,0,0.,4.8,2.,4.8,1.,4.8,0.,4.8
1981-08-31 00:34:53.190 ,5,0,0.,4.8,1.,4.8,0.,4.8,0.,4.8
1981-08-31 00:34:57.990 ,5,0,0.,4.8,1.,4.8,0.,4.8,0.,4.8
1981-08-31 00:35:02.790 ,5,0,0.,4.8,0.,4.8,0.,4.8,0.,4.8
1981-08-31 00:35:07.590 ,5,0,0.,4.8,3.,4.8,1.,4.8,0.,4.8
1981-08-31 00:35:12.390 ,6,0,0.,4.8,3.,4.8,1.,4.8,0.,4.8
1981-08-31 00:35:17.190 ,6,0,0.,4.8,6.,4.8,0.,4.8,0.,4.8
1981-08-31 00:35:21.990 ,6,0,0.,4.8,1.,4.8,0.,4.8,0.,4.8
1981-08-31 00:35:26.790 ,6,0,0.,4.8,1.,4.8,0.,4.8,1.,4.8
1981-08-31 00:35:31.590 ,6,0,0.,4.8,1.,4.8,2.,4.8,0.,4.8
1981-08-31 00:35:36.390 ,6,0,0.,4.8,0.,4.8,0.,4.8,0.,4.8
1981-08-31 00:35:41.190 ,6,0,0.,4.8,2.,4.8,0.,4.8,0.,4.8
1981-08-31 00:35:45.990 ,6,0,0.,4.8,2.,4.8,0.,4.8,1.,4.8
1981-08-31 00:35:50.790 ,6,0,0.,4.8,1.,4.8,1.,4.8,0.,4.8
1981-08-31 00:35:55.590 ,6,0,0.,4.8,0.,4.8,2.,4.8,1.,4.8
1981-08-31 00:36:00.390 ,7,0,0.,4.8,1.,4.8,0.,4.8,0.,4.8
1981-08-31 00:36:05.190 ,7,0,0.,4.8,3.,4.8,0.,4.8,1.,4.8
1981-08-31 00:36:09.990 ,7,0,0.,4.8,1.,4.8,0.,4.8,0.,4.8
1981-08-31 00:36:14.790 ,7,0,0.,4.8,0.,4.8,0.,4.8,0.,4.8
1981-08-31 00:36:19.590 ,7,0,0.,4.8,1.,4.8,0.,4.8,0.,4.8
1981-08-31 00:36:24.390 ,7,0,0.,4.8,0.,4.8,0.,4.8,0.,4.8
1981-08-31 00:36:29.190 ,7,0,0.,4.8,0.,4.8,0.,4.8,0.,4.8
1981-08-31 00:36:33.990 ,7,0,0.,4.8,1.,4.8,0.,4.8,0.,4.8
1981-08-31 00:36:38.790 ,7,0,0.,4.8,0.,4.8,0.,4.8,1.,4.8
1981-08-31 00:36:43.590 ,7,0,0.,4.8,1.,4.8,0.,4.8,0.,4.8
1981-08-31 00:36:48.390 ,7,0,0.,4.8,0.,4.8,0.,4.8,0.,4.8
1981-08-31 00:36:53.190 ,7,0,0.,4.8,0.,4.8,0.,4.8,0.,4.8